W1HAF-2 Waterford EOC CT US current weather conditions

sailwx.info

Wind from 297 at 3 knots gusting 6

Air temperature 21.7° C
Dewpoint 18.1° C

Last reported at 2020-Jul-15 12:05 UTC.
Time now 2020-Jul-15 12:31 UTC

Location: N 41°21' W 072°08'.
View on Google Maps.

See reports from other nearby stations

  
Tides and Currents Weather Stations Pressure Air Temp Water Temp Dewpoint Dewpoint Depression Visibility Wind Speed Wind Dir Waves Ship Positions
date/time (UTC)wind fromknots sea level pressurealtimeterstation pressurevisibilityair tempwater tempwave heightnotes
2020-Jul-15 12:05 297 3 gusting 6 21.7
2020-Jul-15 11:56 020 3 gusting 7 21.7
2020-Jul-15 11:46 323 0 gusting 4 21.7
2020-Jul-15 11:36 104 0 gusting 4 21.1
2020-Jul-15 11:26 010 21.1
2020-Jul-15 11:15 023 1 gusting 4 20.6
2020-Jul-15 11:06 049 20.6
2020-Jul-15 10:56 044 0 gusting 3 20.0
2020-Jul-15 10:45 056 20.0
2020-Jul-15 10:35 075 19.4
2020-Jul-15 10:26 008 18.9
2020-Jul-15 10:16 008 18.9
2020-Jul-15 10:06 027 0 gusting 2 18.9
2020-Jul-15 09:56 018 18.9
2020-Jul-15 09:45 004 18.9
2020-Jul-15 09:35 014 18.9
2020-Jul-15 09:26 349 18.9
2020-Jul-15 09:15 347 19.4
2020-Jul-15 09:05 316 18.9
2020-Jul-15 08:56 008 18.9
2020-Jul-15 08:45 024 18.9
2020-Jul-15 08:36 085 18.9
2020-Jul-15 08:25 338 18.9
2020-Jul-15 08:15 039 18.3
2020-Jul-15 08:06 047 18.3
2020-Jul-15 07:56 347 18.3
2020-Jul-15 07:45 356 18.3
2020-Jul-15 07:36 015 18.9
2020-Jul-15 07:25 002 18.9
2020-Jul-15 07:16 004 0 gusting 1 18.9
2020-Jul-15 07:05 314 18.9
2020-Jul-15 06:55 352 0 gusting 3 18.9
2020-Jul-15 06:46 324 19.4
2020-Jul-15 06:35 051 19.4
2020-Jul-15 06:25 321 0 gusting 4 19.4
2020-Jul-15 06:16 334 0 gusting 6 20.0
2020-Jul-15 06:05 036 20.0
2020-Jul-15 05:56 017 20.0
2020-Jul-15 05:45 027 1 gusting 6 20.0
2020-Jul-15 05:35 045 3 gusting 6 20.0
2020-Jul-15 05:26 044 1 gusting 4 20.0
2020-Jul-15 05:15 027 1 gusting 4 20.0
2020-Jul-15 05:06 354 0 gusting 3 20.0
2020-Jul-15 04:55 108 1 gusting 6 20.0
2020-Jul-15 04:45 001 0 gusting 4 20.0
2020-Jul-15 04:36 084 1 gusting 5 20.0
2020-Jul-15 04:25 056 0 gusting 4 20.6
2020-Jul-15 04:16 360 1 gusting 5 20.6
2020-Jul-15 04:05 015 1 gusting 4 20.6
2020-Jul-15 03:55 129 1 gusting 5 20.0
2020-Jul-15 03:46 015 19.4
2020-Jul-15 03:35 172 19.4
2020-Jul-15 03:26 172 19.4
2020-Jul-15 03:15 172 18.9
2020-Jul-15 03:06 172 18.9
2020-Jul-15 02:55 172 18.9
2020-Jul-15 02:46 172 19.4
2020-Jul-15 02:35 171 19.4
2020-Jul-15 02:25 174 19.4
2020-Jul-15 02:16 174 19.4
2020-Jul-15 02:05 151 19.4
2020-Jul-15 01:55 150 20.0
2020-Jul-15 01:46 150 20.0
2020-Jul-15 01:35 150 20.6
2020-Jul-15 01:26 150 20.6
2020-Jul-15 01:15 150 20.6
2020-Jul-15 01:05 151 20.6
2020-Jul-15 00:55 146 21.1
2020-Jul-15 00:45 148 21.1
2020-Jul-15 00:36 141 21.7
2020-Jul-15 00:26 169 22.2
2020-Jul-15 00:16 141 22.8
2020-Jul-15 00:05 195 22.8
2020-Jul-14 23:55 126 23.3
2020-Jul-14 23:46 237 23.3
2020-Jul-14 23:35 146 23.9
2020-Jul-14 23:25 158 23.9
2020-Jul-14 23:16 168 24.4
2020-Jul-14 23:05 181 0 gusting 1 24.4
2020-Jul-14 22:56 197 24.4
2020-Jul-14 22:45 175 0 gusting 2 25.0
2020-Jul-14 22:35 174 25.6
2020-Jul-14 22:26 184 1 gusting 3 26.1
2020-Jul-14 22:16 191 0 gusting 3 26.1
2020-Jul-14 22:05 115 0 gusting 4 26.1
2020-Jul-14 21:55 132 0 gusting 4 26.1
2020-Jul-14 21:46 134 1 gusting 5 26.1
2020-Jul-14 21:35 161 0 gusting 5 26.7
2020-Jul-14 21:25 293 0 gusting 6 26.7
2020-Jul-14 21:16 168 2 gusting 6 27.2
2020-Jul-14 21:05 323 1 gusting 6 27.2
2020-Jul-14 20:56 345 2 gusting 7 27.2
2020-Jul-14 20:46 066 4 gusting 8 27.2
2020-Jul-14 20:35 324 1 gusting 6 27.2
2020-Jul-14 20:26 300 1 gusting 6 27.2
2020-Jul-14 20:15 187 26.7
2020-Jul-14 20:05 049 26.1
2020-Jul-14 19:55 354 25.0
2020-Jul-14 19:46 245 24.4
2020-Jul-14 19:36 212 0 gusting 4 22.8
2020-Jul-14 19:25 200 22.8
2020-Jul-14 19:16 243 0 gusting 2 22.2
2020-Jul-14 19:05 233 22.8
2020-Jul-14 18:55 245 24.4
2020-Jul-14 18:46 328 4 gusting 10 26.1
2020-Jul-14 18:36 147 1 gusting 10 26.7
2020-Jul-14 18:26 152 2 gusting 6 27.8
2020-Jul-14 18:15 190 1 gusting 5 30.6
2020-Jul-14 18:05 148 0 gusting 4 31.1
2020-Jul-14 17:55 226 2 gusting 6 30.6
2020-Jul-14 17:45 144 0 gusting 5 30.6
2020-Jul-14 17:36 001 29.4
2020-Jul-14 17:26 325 0 gusting 3 28.9
2020-Jul-14 09:06 028 18.3
2020-Jul-14 07:46 18.9
2020-Jul-14 07:35 19.4
2020-Jul-14 07:26 19.4
2020-Jul-14 07:15 19.4
2020-Jul-14 07:06 19.4
2020-Jul-14 06:55
2020-Jul-14 06:46
2020-Jul-14 06:36
2020-Jul-14 06:26
2020-Jul-14 06:16
2020-Jul-14 06:05
2020-Jul-14 05:55
2020-Jul-14 05:46
2020-Jul-14 05:35
2020-Jul-14 05:26
2020-Jul-14 05:16 240 20.0
2020-Jul-14 05:05 241 20.0
2020-Jul-14 04:55 240 20.0
2020-Jul-14 04:45 240 20.0
2020-Jul-14 04:36 240 20.0
2020-Jul-14 04:25 240 20.6
2020-Jul-14 04:16 240 20.6
2020-Jul-14 04:05 240 20.6
2020-Jul-14 03:55 240 20.6
2020-Jul-14 03:45 240 21.1
2020-Jul-14 03:35 240 21.1
2020-Jul-14 03:26 240 21.1
2020-Jul-14 03:15 240 21.7
2020-Jul-14 03:06 240 21.7
2020-Jul-14 02:55 240 21.7
2020-Jul-14 02:45 240 21.7
2020-Jul-14 02:36 240 21.7
2020-Jul-14 02:25 240 21.7
2020-Jul-14 02:15 240 22.2
2020-Jul-14 02:06 240 22.2
2020-Jul-14 01:55 240 22.2
2020-Jul-14 01:46 240 22.8
2020-Jul-14 01:36 240 22.8
2020-Jul-14 01:25 240 23.3
2020-Jul-14 01:15 240 23.9
2020-Jul-14 01:05 246 23.9
2020-Jul-14 00:55 253 24.4
2020-Jul-14 00:46 257 24.4
2020-Jul-14 00:36 250 24.4
2020-Jul-14 00:25 218 24.4
2020-Jul-14 00:16 240 25.0
2020-Jul-14 00:05 215 25.0
2020-Jul-13 23:56 217 25.6
2020-Jul-13 23:52 283 25.6
2020-Jul-13 23:35 259 0 gusting 3 26.1
2020-Jul-13 23:26 158 0 gusting 3 26.1
2020-Jul-13 23:15 212 1 gusting 4 26.7
2020-Jul-13 23:05 233 1 gusting 3 27.2
2020-Jul-13 22:55 236 0 gusting 6 27.2
2020-Jul-13 22:45 212 1 gusting 5 27.8
2020-Jul-13 22:36 224 0 gusting 7 28.3
2020-Jul-13 22:25 164 2 gusting 6 28.3
2020-Jul-13 22:15 169 2 gusting 6 28.9
2020-Jul-13 22:05 172 2 gusting 6 28.9
2020-Jul-13 22:04 228 4 gusting 7 28.9
2020-Jul-13 21:46 212 2 gusting 6 28.9
2020-Jul-13 21:35 188 2 gusting 6 28.9
2020-Jul-13 21:26 248 1 gusting 6 29.4
2020-Jul-13 21:15 220 2 gusting 6 28.9
2020-Jul-13 21:06 241 2 gusting 6 28.9
2020-Jul-13 20:55 170 0 gusting 6 28.9
2020-Jul-13 20:45 181 2 gusting 8 28.3
2020-Jul-13 20:36 236 1 gusting 11 28.3
2020-Jul-13 20:25 207 4 gusting 9 28.3
2020-Jul-13 20:15 170 3 gusting 9 28.3
2020-Jul-13 20:05 178 2 gusting 8 28.3
2020-Jul-13 19:55 245 4 gusting 9 28.3
2020-Jul-13 19:46 201 4 gusting 7 28.9
2020-Jul-13 19:35 208 3 gusting 8 28.3
2020-Jul-13 19:26 140 3 gusting 6 28.3
2020-Jul-13 19:16 231 3 gusting 8 28.3
2020-Jul-13 19:06 166 5 gusting 8 28.3
2020-Jul-13 18:56 271 2 gusting 6 28.9
2020-Jul-13 18:46 198 0 gusting 6 29.4
2020-Jul-13 18:36 196 1 gusting 5 28.9
2020-Jul-13 18:26 168 1 gusting 6 27.8
2020-Jul-13 18:16 200 3 gusting 7 27.2
2020-Jul-13 18:06 243 3 gusting 5 27.2
2020-Jul-13 17:55 214 3 gusting 6 26.7
2020-Jul-13 17:45 233 3 gusting 6 27.2
2020-Jul-13 17:35 215 3 gusting 7 27.8
2020-Jul-13 17:25 229 3 gusting 7 28.9
2020-Jul-13 17:15 263 2 gusting 6 30.0
2020-Jul-13 17:06 172 2 gusting 6 29.4
2020-Jul-13 16:56 137 4 gusting 7 28.9
2020-Jul-13 16:45 148 1 gusting 6 28.9
2020-Jul-13 16:35 221 0 gusting 6 28.9
2020-Jul-13 16:25 141 2 gusting 8 27.8
2020-Jul-13 16:16 200 4 gusting 9 27.2
2020-Jul-13 16:06 205 3 gusting 7 27.8
2020-Jul-13 15:56 258 2 gusting 6 27.8
2020-Jul-13 15:46 202 4 gusting 9 27.8
2020-Jul-13 15:35 191 2 gusting 6 27.8
2020-Jul-13 15:26 243 2 gusting 6 27.2
2020-Jul-13 15:15 246 3 gusting 6 27.2
2020-Jul-13 15:05 209 2 gusting 5 27.2
2020-Jul-13 14:56 244 2 gusting 7 27.8
2020-Jul-13 14:45 237 1 gusting 8 27.2
2020-Jul-13 14:36 168 1 gusting 5 27.8
2020-Jul-13 14:26 175 1 gusting 6 27.2
2020-Jul-13 14:15 195 1 gusting 4 27.8
2020-Jul-13 14:06 162 3 gusting 6 26.7
2020-Jul-13 13:55 229 2 gusting 5 27.2
2020-Jul-13 13:46 164 0 gusting 4 27.2
2020-Jul-13 13:36 196 2 gusting 4 27.2
2020-Jul-13 13:25 221 1 gusting 3 28.3
2020-Jul-13 13:16 152 0 gusting 1 27.8
2020-Jul-13 13:05 127 27.2
2020-Jul-13 12:56 217 26.7
2020-Jul-13 12:45 226 26.7
2020-Jul-13 12:36 222 26.1
2020-Jul-13 12:25 072 25.0
2020-Jul-13 12:15 059 24.4
2020-Jul-13 12:05 046 23.9